"Pseudo-MPEC" for P21CrqL

Created 2022 Dec 12 21:22:15 UT using Find_Orb

Click here for an explanation of pseudo-MPECs

 
 Astrometry: 
     P21CrqL* C2022 12 02#'pcP@sp]1kv\f2sqvaAstrometry\RjUyredacted;%Rd;udBxEF52
     P21CrqL  C2022 12 02lbu2[EJF6F(#3UN/=e;at:@X[vclickWTAJp6Q`Q,a4ctil]hereF52
     P21CrqL  C2022 12 02`1yG+mg2L#hZBD^9nuD05vqv0ZJSL.n]fora;C.]explanation/F52

Station data:
(F52) Pan-STARRS 2, Haleakala  (N20.707382 W156.255910)  US/Hawaii.
   Observers J. Bulger, T. Dukes, T. Lowe, A. Schultz, M. Willman. Measurers
   K. Chambers, S. Chastel, T. de Boer, L. Denneau, J. Fairlamb, H.
   Flewelling, M. Huber, C.-C. Lin, E. Magnier, Y. Ramanjooloo, R. Wainscoat,
   R. Weryk. 1.8-m Ritchey-Chrétien + CCD.

Orbital elements:  P21CrqL
   Perihelion 2022 Sep 3.76706 +/- 100 TT = 18:24:34 (JD 2459826.26706)
Epoch 2022 Dec  3.0 TT = JDT 2459916.5   Earth MOID: 0.2689      AutoNEOCP
M  20.97850342 +/- 100              (J2000 ecliptic)
n   0.23249274 +/- 0.461            Peri.  195.54318 +/- 70
a   2.61936759 +/- 3.46             Node   214.39235 +/- 60
e   0.5225902 +/- 0.24              Incl.   27.47200 +/- 32
P   4.24                   H 18.66  G  0.15   U 12.2  SR
q 1.25051164 +/- 0.64    Q 3.98822355 +/- 22.1
From 3 observations 2022 Dec. 2 (27.3 min); mean residual 0".10
Residuals in arcseconds: 
221202 F52  .09-  .05+    221202 F52  .18+  .09-    221202 F52  .09-  .05+    

Ephemerides (geocentric):
Date (UTC) HH   RA             Dec           delta  r     elong  mag " sig PA
---- --------  ------------   ------------  ------ ------ -----  --- --------
2022 12 12 21  09 56 58.391   -28 40 42.21  1.2188 1.6366  95.4 21.7  48d 163
2022 12 12 22  09 56 59.678   -28 41 27.45  1.2187 1.6369  95.4 21.7  48d 163
2022 12 12 23  09 57 00.961   -28 42 12.65  1.2187 1.6371  95.4 21.7  48d 163
2022 12 13 00  09 57 02.240   -28 42 57.82  1.2187 1.6374  95.4 21.7  48d 163
2022 12 13 01  09 57 03.515   -28 43 42.96  1.2186 1.6377  95.4 21.7  48d 163
2022 12 13 02  09 57 04.786   -28 44 28.06  1.2186 1.6379  95.5 21.7  48d 163
2022 12 13 03  09 57 06.052   -28 45 13.13  1.2185 1.6382  95.5 21.7  48d 163
2022 12 13 04  09 57 07.314   -28 45 58.17  1.2185 1.6384  95.5 21.7  48d 163
2022 12 13 05  09 57 08.572   -28 46 43.18  1.2185 1.6387  95.5 21.7  48d 163
2022 12 13 06  09 57 09.826   -28 47 28.15  1.2184 1.6389  95.6 21.7  48d 163
2022 12 13 07  09 57 11.076   -28 48 13.09  1.2184 1.6392  95.6 21.7  48d 163
2022 12 13 08  09 57 12.321   -28 48 58.00  1.2184 1.6395  95.6 21.7  48d 163
2022 12 13 09  09 57 13.562   -28 49 42.87  1.2183 1.6397  95.6 21.7  48d 163
2022 12 13 10  09 57 14.799   -28 50 27.71  1.2183 1.6400  95.6 21.7  48d 163
2022 12 13 11  09 57 16.032   -28 51 12.52  1.2182 1.6402  95.7 21.7  49d 163
2022 12 13 12  09 57 17.260   -28 51 57.30  1.2182 1.6405  95.7 21.7  49d 163
2022 12 13 13  09 57 18.484   -28 52 42.04  1.2182 1.6408  95.7 21.7  49d 163
2022 12 13 14  09 57 19.704   -28 53 26.75  1.2181 1.6410  95.7 21.7  49d 163
2022 12 13 15  09 57 20.920   -28 54 11.42  1.2181 1.6413  95.8 21.7  49d 163
2022 12 13 16  09 57 22.131   -28 54 56.07  1.2181 1.6415  95.8 21.7  49d 163
2022 12 13 17  09 57 23.339   -28 55 40.68  1.2180 1.6418  95.8 21.7  49d 163
2022 12 13 18  09 57 24.542   -28 56 25.26  1.2180 1.6420  95.8 21.7  49d 163
2022 12 13 19  09 57 25.741   -28 57 09.80  1.2179 1.6423  95.9 21.7  49d 163
2022 12 13 20  09 57 26.935   -28 57 54.31  1.2179 1.6426  95.9 21.7  49d 163
2022 12 13 21  09 57 28.126   -28 58 38.79  1.2179 1.6428  95.9 21.7  49d 163
2022 12 13 22  09 57 29.312   -28 59 23.23  1.2178 1.6431  95.9 21.7  49d 163
2022 12 13 23  09 57 30.494   -29 00 07.64  1.2178 1.6433  95.9 21.7  49d 163
2022 12 14 00  09 57 31.671   -29 00 52.02  1.2177 1.6436  96.0 21.7  49d 163
2022 12 14 01  09 57 32.845   -29 01 36.36  1.2177 1.6439  96.0 21.7  49d 163
2022 12 14 02  09 57 34.014   -29 02 20.68  1.2177 1.6441  96.0 21.7  49d 163
2022 12 14 03  09 57 35.179   -29 03 04.95  1.2176 1.6444  96.0 21.7  49d 163
2022 12 14 04  09 57 36.339   -29 03 49.20  1.2176 1.6446  96.1 21.7  50d 163
2022 12 14 05  09 57 37.496   -29 04 33.41  1.2176 1.6449  96.1 21.7  50d 163
2022 12 14 06  09 57 38.648   -29 05 17.59  1.2175 1.6452  96.1 21.7  50d 163
2022 12 14 07  09 57 39.796   -29 06 01.73  1.2175 1.6454  96.1 21.7  50d 163
2022 12 14 08  09 57 40.940   -29 06 45.84  1.2174 1.6457  96.2 21.7  50d 163
2022 12 14 09  09 57 42.079   -29 07 29.92  1.2174 1.6459  96.2 21.7  50d 163
2022 12 14 10  09 57 43.214   -29 08 13.96  1.2174 1.6462  96.2 21.7  50d 163
2022 12 14 11  09 57 44.345   -29 08 57.97  1.2173 1.6464  96.2 21.7  50d 163
2022 12 14 12  09 57 45.472   -29 09 41.95  1.2173 1.6467  96.2 21.7  50d 163
2022 12 14 13  09 57 46.594   -29 10 25.89  1.2172 1.6470  96.3 21.7  50d 163
2022 12 14 14  09 57 47.712   -29 11 09.80  1.2172 1.6472  96.3 21.7  50d 163
2022 12 14 15  09 57 48.826   -29 11 53.67  1.2172 1.6475  96.3 21.7  50d 163
2022 12 14 16  09 57 49.936   -29 12 37.51  1.2171 1.6477  96.3 21.7  50d 163
2022 12 14 17  09 57 51.041   -29 13 21.32  1.2171 1.6480  96.4 21.7  51d 163
2022 12 14 18  09 57 52.142   -29 14 05.09  1.2171 1.6483  96.4 21.7  51d 163
2022 12 14 19  09 57 53.239   -29 14 48.83  1.2170 1.6485  96.4 21.7  51d 163
2022 12 14 20  09 57 54.331   -29 15 32.54  1.2170 1.6488  96.4 21.7  51d 163